Regional Weather Roundup
Issued by NWS

Home | Current Version | Previous Version | Text Only | Print | Product List | Glossary Off
Versions: 1 2 3 4 5 6 7 8 9 10 11 12 13 14 15 16 17 18 19 20 21 22 23 24 25 26 27 28 29 30 31 32 33 34 35 36 37 38 39 40 41 42 43 44 45 46 47 48 49 50

000
ASUS43 KMKX 021311
RWRWI

WISCONSIN REGIONAL WEATHER ROUNDUP
NATIONAL WEATHER SERVICE MILWAUKEE/SULLIVAN WI
800 AM CDT SUN AUG 02 2015

NOTE: "FAIR" INDICATES FEW OR NO CLOUDS BELOW 12,000 FEET WITH NO
SIGNIFICANT WEATHER AND/OR OBSTRUCTIONS TO VISIBILITY.

WIZ001-002-006>008-014>016-023>028-021400-
NORTHWEST WISCONSIN

CITY           SKY/WX    TMP DP  RH WIND       PRES   REMARKS
SUPERIOR ARPT  PTSUNNY   67  62  85 W3        29.65R
ASHLAND        CLOUDY    69  66  90 S5        29.64F
HAYWARD        PTSUNNY   69  64  84 CALM      29.66F
SIREN          CLOUDY    65  63  92 CALM      29.66F
CUMBERLAND     MOSUNNY   68  64  88 S6        29.67F
RICE LAKE      MOSUNNY   69  65  86 S7        29.69S
CHETEK         MOSUNNY   69  66  91 S9        29.67F
LADYSMITH      CLOUDY    67  65  93 S8        29.69S
EAU CLAIRE     MOSUNNY   71  65  81 S5        29.68F
MENOMONIE      MOSUNNY   72  65  79 S6        29.68F
NEW RICHMOND   MOSUNNY   71  66  83 SW7       29.67S
OSCEOLA        MOSUNNY   71  70  95 CALM      29.68F
$$

WIZ003>005-009-010-017-018-021400-
NORTH CENTRAL WISCONSIN

CITY           SKY/WX    TMP DP  RH WIND       PRES   REMARKS
MANITOWISH WTR CLOUDY    64  63  97 CALM      29.68S
ARBOR VITAE    TSTM      65  63  94 N6        29.67S
WOODRUFF       TSTM      65  63  94 N6        29.67S
RHINELANDER    TSTM      63  60  90 NW8G25    29.72R
EAGLE RIVER    CLOUDY    65  64  96 SW3       29.71R
LAND O LAKES   CLOUDY    64  60  88 CALM      29.68F
PHILLIPS       MOSUNNY   61  61  98 NW3       29.63F
TOMAHAWK       LGT RAIN  63  60  91 E3        29.63F
MEDFORD        CLOUDY    67  65  95 S10       29.69F
MERRILL        NOT AVBL
$$

WIZ029-030-035-036-043>047-021400-
CENTRAL WISCONSIN

CITY           SKY/WX    TMP DP  RH WIND       PRES   REMARKS
WAUSAU         PTSUNNY   70  67  90 NW5       29.70S
MOSINEE        CLOUDY    70  68  94 SW6       29.73R
MARSHFIELD     CLOUDY    71  66  84 W8        29.73R
STEVENS POINT  PTSUNNY   71  67  88 W7        29.72S
WAUPACA        MOSUNNY   76  69  79 SW7       29.71S
WAUTOMA        PTSUNNY   75  69  81 SW6       29.72F
WISC RAPIDS    PTSUNNY   74  66  76 W9        29.73R
CAMP DOUGLAS   MOSUNNY   75  73  94 SW12G21   29.70F
$$

WIZ011>013-019>022-031-037>040-048>050-021400-
NORTHEAST WISCONSIN

CITY           SKY/WX    TMP DP  RH WIND       PRES   REMARKS
ANTIGO         MOSUNNY   66  65  99 W10       29.72S
SHAWANO        MOSUNNY   73  67  82 SW6       29.69F
OCONTO         PTSUNNY   71  71  98 SW6       29.68R
STURGEON BAY   PTSUNNY   75  66  73 SW15G23   29.71R
GREEN BAY      MOSUNNY   74  69  85 SW10      29.70S
MANITOWOC      PTSUNNY   77  69  76 MISG      29.70F
APPLETON       PTSUNNY   73  68  83 SW13      29.71F
CLINTONVILLE   MOSUNNY   70  66  88 SW7       29.69F
OSHKOSH        MOSUNNY   73  67  81 SW12      29.71F
$$

WIZ032>034-041-042-053>061-021400-
SOUTHWEST WISCONSIN

CITY           SKY/WX    TMP DP  RH WIND       PRES   REMARKS
LA CROSSE      SUNNY     77  69  76 SE10      29.70F
SPARTA         MOSUNNY   76  66  70 SW7       29.71F
VIROQUA        SUNNY     74  69  83 SW12      29.75F
BOSCOBEL       PTSUNNY   76  69  79 SW7       29.77S
PRAIRIE DU CHI PTSUNNY   75  64  67 S7        29.77S
PLATTEVILLE    MOSUNNY   74  69  86 SW7       29.82R
$$

WIZ056-057-062-063-064-067-068-021400-
SOUTH CENTRAL WISCONSIN

CITY           SKY/WX    TMP DP  RH WIND       PRES   REMARKS
REEDSBURG      PTSUNNY   73  69  87 SW13      29.75S
BARABOO/DELLS  PTSUNNY   73  67  80 SW17      29.75S
LONE ROCK      PTSUNNY   75  68  78 SW6       29.78S
MINERAL POINT  MOSUNNY   75  66  73 S6        29.82R
MADISON        PTSUNNY   76  68  76 SW8       29.78R
MIDDLETON      MOSUNNY   76  68  76 SW12G17   29.79S
WATERTOWN      SUNNY     73  73 100 SW9       29.78S
MONROE         SUNNY     72  68  88 SW16      29.82S
JANESVILLE     PTSUNNY   73  72  94 SW12      29.80F
$$

WIZ051-052-058>065-066-070>072-021400-
SOUTHEAST WISCONSIN

CITY           SKY/WX    TMP DP  RH WIND       PRES   REMARKS
MILWAUKEE      MOSUNNY   76  68  76 SW12      29.78F
WAUKESHA       MOSUNNY   73  68  83 SW9       29.80F
MILWAUKEE/TIMM SUNNY     75  66  73 SW9G17    29.78F
RACINE         MOSUNNY   77  68  73 SW14G22   29.80F
BURLINGTON     SUNNY     74  67  80 SW12      29.80S
KENOSHA        SUNNY     77  69  76 SW12      29.81F
FOND DU LAC    MOSUNNY   74  69  85 SW10G24   29.72F
SHEBOYGAN      PTSUNNY   74  69  85 SW10      29.73F
WEST BEND      MOSUNNY   73  66  78 SW12G21   29.76S
JUNEAU         MOSUNNY   72  69  90 S12       29.78S
$$

LSZ147-162-021400-
LAKE SUPERIOR

STATION/POSITION TIME  TEMP    WIND        PRES    WAVE
                       AIR SEA DIR/SP/G            HT/PER
                 (UTC) (F)     (DEG/KT/KT) (MB)    (FT/S)
W MID LAKE BUOY  1250   58 54  190/  6/  8 1002.7R   1/ 3
DEVILS ISLAND    1300   67     190/  6/  8 1003.1R
PORT WING        1200   65     190/  5/  6 1004.1S
SAXON HARBOR     1200   67                 1003.0F
$$

LMZ867-665-643>646-021400-
LAKE MICHIGAN

STATION/POSITION TIME  TEMP    WIND        PRES    WAVE
                       AIR SEA DIR/SP/G            HT/PER
                 (UTC) (F)     (DEG/KT/KT) (MB)    (FT/S)
CHAMBERS ISLAND  1200   69     190/  6/ 12 1004.1F
S GREEN BAY BUOY 1300   67 64  230/ 12/ 14 1006.8R
N MID LAKE BUOY  1250   69 68  210/ 14/ 16 1003.1F   3/ 4
NORTHPORT PIER   1200   69     180/  4/  9 1003.7F
ALGOMA LAKESHORE 1212          240/ 13/ 19   N/A
KEWAUNEE LAKESHO 1200   71     190/ 15/ 18 1004.4F
SHEBOYGAN LAKESH 1300   71     190/ 11/ 12 1006.4F
PORT WASHINGTON  1200   78     240/  7/ 11 1008.5
ATWATER BUOY     1300   73 57  230/ 12/ 14 1009.6S
MILWAUKEE LAKESH 1200   74     240/ 14/ 17   N/A
KENOSHA   LAKESH 1300   77     220/ 11/ 16 1009.1F
$$

TC  - TEMPERATURE IN CELSIUS
VSB - VISIBILITY IN STATUTE MILES
WCI - WIND CHILL INDEX
HX  - HEAT INDEX




USA.gov is the U.S. government's official web portal to all federal, state and local government web resources and services.